Location: Arbon
(43.0005°N, 0.7472°E)
Time: 21:24:21
(UTC+00:00)

SL-4 R/B - Visible Passes

Search period start: 04 December 2020 00:00
Search period end: 14 December 2020 00:00
Orbit: 428 x 665 km, 51.6° (Epoch: 03 December)

Date Brightness Start Highest point End Pass type
(mag) Time Alt. Az. Time Alt. Az. Time Alt. Az.
04 Dec 2.9 05:19:10 31° N 05:19:56 34° NNE 05:23:21 10° E visible
05 Dec 2.6 05:12:56 39° N 05:13:23 40° NNE 05:16:55 10° E visible
06 Dec 2.3 05:06:43 49° NNE 05:06:49 49° NNE 05:10:25 10° ESE visible
07 Dec 2.2 05:00:34 58° ENE 05:00:34 58° ENE 05:03:54 10° ESE visible
07 Dec 3.4 06:36:32 10° W 06:39:28 21° SW 06:42:15 10° S visible
08 Dec 2.5 04:54:27 52° ESE 04:54:27 52° ESE 04:57:19 10° ESE visible
08 Dec 3.7 06:30:19 10° W 06:32:41 16° SW 06:34:56 10° SSW visible
09 Dec 3.2 04:48:25 36° SE 04:48:25 36° SE 04:50:41 10° SE visible
09 Dec 4.0 06:24:32 10° WSW 06:25:51 12° SW 06:27:09 10° SSW visible
10 Dec 3.9 04:42:27 23° SE 04:42:27 23° SE 04:43:58 10° SE visible
11 Dec 4.5 04:36:34 14° SSE 04:36:34 14° SSE 04:37:10 10° SSE visible
